DELTA 1 DEB, 39097

Orbit data source: Space-Track

DELTA 1 DEB, 39097 is space debris in SSO originally from a launch on Tue, 06 Nov 1973 UTC launched from the Air Force Western Test Range (AFWTR). Debris objects in space refer to the collection of defunct objects orbiting the Earth. Examples of debris include non-operational satellites, rocket bodies, and fragments generated from explosions, collisions, or faulty payload assembly.

Loading next visibility...
Identifier
39097, 1973-086HK
Orbit
SSO
Country
Flag of USUS
Related business
Manufacturer
Unknown
Mission
Spacecraft
Bus & Motor
Unknown
Mass
Unknown
Launch date (UTC)
1973-11-06 (53 years ago)
Launch vehicle
Unknown
Launch site
Air Force Western Test Range (AFWTR)
Object type
Payload
Rocket body
Debris
Shape & HBR
Unknown shape, 0.1 m
Radar Cross Section
Medium (>0.1 m² and <1 m²)

Expand to show TLE details & history
Last TLE update: 3 days ago

TLE from 3 days ago
0 DELTA 1 DEB
1 39097U 73086HK  26206.57429801 -.00000027  00000-0  15666-3 0  9991
2 39097 102.3833 233.9663 0031176 190.4422 321.9890 12.33955145609748
Epoch: 2026-07-25T13:46Z
TLE epoch observation values (Epoch: 2026-07-25T13:46:59.348Z)
Latitude
27.12719°
Longitude
-89.63868°
Altitude
1,515.906 km
Speed
7.118 km/s
True Right ascension
04h 01m 34s
True Declination
27° 00' 05"
Sunlit
Object was in daylight at epoch
Visualization orbit readout
Latitude
Unknown
Longitude
Unknown
Altitude
Unknown
Speed
Unknown
Apparent Right ascension
Unknown
Apparent Declination
Unknown
Sunlit
N/A
Visualization observer readout
Local Sidereal Time
09:33:02
Azimuth
Unknown
Elevation
Unknown
Doppler factor
Unknown
Orbital elements
Apogee altitude
1,554.592 km
Perigee altitude
1,505.284 km
Semi-major axis
7,908.075 km
Eccentricity
0.00312
Inclination
102.3833°
RAAN
233.9663°
Arg. of periapsis
190.4422°
True anomaly
321.76832°
Mean anomaly
321.989°
Eccentric anomaly
321.87873°
Mean motion
3.08629 °/min
Orbital period
116.64 mins
BSTAR
0.00015666
Loading maneuver chart data...
Computing Atmospheric mass density...
Loading historical data...
Loading historical data...
Loading historical data...
Loading historical data...
Loading historical data...
Loading historical data...
Loading historical data...

Documentation

Showing up to 5 results
|